FDX2211 KBFM-KMEM

Flight info

Callsign FDX2211
Flight time N/A
Altitude 17000
Route STETS V454 MVC/N0463F360 GOOGY WASER VANZE3
Aircraft A306/H-SDE3FGHIRWY/LB1

Departure

Time 2026-04-14 13:38
Airport Mobile Downtown Airport (KBFM)

Arrival

Time N/A
Airport Memphis International Airport (KMEM)
Time Latitude Longitude Altitude Speed Heading
2026-04-14 13:15 30.64139 -88.07633 43 ft 0 kts 291°
2026-04-14 13:26 30.64137 -88.07628 42 ft 4 kts 290°
2026-04-14 13:26 30.64130 -88.07599 42 ft 4 kts 276°
2026-04-14 13:27 30.64131 -88.07569 42 ft 5 kts 243°
2026-04-14 13:27 30.64142 -88.07554 39 ft 3 kts 197°
2026-04-14 13:29 30.64079 -88.07577 42 ft 15 kts 197°
2026-04-14 13:29 30.63980 -88.07612 42 ft 14 kts 196°
2026-04-14 13:30 30.63887 -88.07641 43 ft 12 kts 186°
2026-04-14 13:30 30.63782 -88.07599 43 ft 25 kts 152°
2026-04-14 13:30 30.63640 -88.07516 43 ft 19 kts 153°
2026-04-14 13:30 30.63559 -88.07493 44 ft 7 kts 207°
2026-04-14 13:31 30.63490 -88.07581 43 ft 19 kts 234°
2026-04-14 13:31 30.63415 -88.07700 45 ft 18 kts 234°
2026-04-14 13:31 30.63343 -88.07814 43 ft 16 kts 234°
2026-04-14 13:31 30.63290 -88.07894 42 ft 10 kts 223°
2026-04-14 13:32 30.63252 -88.07906 42 ft 5 kts 174°
2026-04-14 13:32 30.63168 -88.07849 40 ft 22 kts 140°
2026-04-14 13:32 30.63032 -88.07708 38 ft 30 kts 137°
2026-04-14 13:32 30.62865 -88.07528 37 ft 36 kts 137°
2026-04-14 13:33 30.62676 -88.07340 40 ft 35 kts 140°
2026-04-14 13:33 30.62495 -88.07164 42 ft 33 kts 140°
2026-04-14 13:33 30.62316 -88.06991 39 ft 33 kts 140°
2026-04-14 13:33 30.62143 -88.06818 36 ft 32 kts 139°
2026-04-14 13:34 30.62054 -88.06606 37 ft 16 kts
2026-04-14 13:34 30.62171 -88.06595 37 ft 13 kts 25°
2026-04-14 13:34 30.62178 -88.06521 35 ft 14 kts 127°
2026-04-14 13:35 30.62083 -88.06420 39 ft 19 kts 140°
2026-04-14 13:35 30.61988 -88.06325 41 ft 17 kts 138°
2026-04-14 13:35 30.61899 -88.06233 41 ft 17 kts 138°
2026-04-14 13:35 30.61812 -88.06143 42 ft 16 kts 138°
2026-04-14 13:36 30.61725 -88.06055 40 ft 17 kts 138°
2026-04-14 13:36 30.61630 -88.05957 38 ft 19 kts 139°
2026-04-14 13:36 30.61538 -88.05862 37 ft 16 kts 139°
2026-04-14 13:36 30.61462 -88.05843 36 ft 9 kts 198°
2026-04-14 13:37 30.61425 -88.05875 36 ft 7 kts 226°
2026-04-14 13:37 30.61382 -88.05932 35 ft 10 kts 232°
2026-04-14 13:37 30.61367 -88.05977 35 ft 3 kts 266°
2026-04-14 13:37 30.61370 -88.06019 35 ft 5 kts 294°
2026-04-14 13:38 30.61583 -88.06245 39 ft 89 kts 319°
2026-04-14 13:38 30.62269 -88.06946 117 ft 170 kts 319°
2026-04-14 13:38 30.63297 -88.07769 1256 ft 182 kts 336°
2026-04-14 13:38 30.64611 -88.08183 2166 ft 216 kts 351°
2026-04-14 13:39 30.66170 -88.08080 2849 ft 231 kts 17°
2026-04-14 13:39 30.67500 -88.06924 3627 ft 253 kts 55°
2026-04-14 13:39 30.68247 -88.05039 4679 ft 261 kts 70°
2026-04-14 13:39 30.68867 -88.03037 5785 ft 266 kts 68°
2026-04-14 13:40 30.69708 -88.01097 6918 ft 271 kts 58°
2026-04-14 13:40 30.70840 -87.99320 8042 ft 276 kts 49°
2026-04-14 13:40 30.72203 -87.97725 9160 ft 281 kts 41°
2026-04-14 13:40 30.73720 -87.96264 10227 ft 286 kts 37°
2026-04-14 13:41 30.75364 -87.94835 10861 ft 307 kts 36°
2026-04-14 13:41 30.77168 -87.93334 11238 ft 330 kts 35°
2026-04-14 13:41 30.79100 -87.91733 11598 ft 352 kts 35°
2026-04-14 13:41 30.81140 -87.90022 11956 ft 370 kts 36°
2026-04-14 13:42 30.83223 -87.88249 12499 ft 380 kts 36°
2026-04-14 13:42 30.85366 -87.86401 13170 ft 386 kts 36°
2026-04-14 13:42 30.87535 -87.84516 13869 ft 391 kts 37°
2026-04-14 13:42 30.89726 -87.82606 14572 ft 395 kts 37°
2026-04-14 13:43 30.91937 -87.80676 15260 ft 400 kts 37°
2026-04-14 13:43 30.94173 -87.78723 15940 ft 404 kts 37°
2026-04-14 13:43 30.96433 -87.76749 16577 ft 407 kts 37°
2026-04-14 13:43 30.98703 -87.74766 16919 ft 409 kts 37°
2026-04-14 13:44 31.00994 -87.72797 16998 ft 407 kts 36°
2026-04-14 13:44 31.03272 -87.70888 16998 ft 401 kts 35°
2026-04-14 13:44 31.05547 -87.69007 16999 ft 400 kts 35°
2026-04-14 13:44 31.07820 -87.67134 17000 ft 400 kts 35°
2026-04-14 13:45 31.10090 -87.65264 17000 ft 400 kts 35°
2026-04-14 13:45 31.12360 -87.63388 17000 ft 400 kts 35°
2026-04-14 13:45 31.14631 -87.61508 17000 ft 400 kts 35°
2026-04-14 13:45 31.16898 -87.59625 17000 ft 400 kts 35°
2026-04-14 13:46 31.19135 -87.57765 17000 ft 400 kts 35°
2026-04-14 13:46 31.21429 -87.55855 17000 ft 400 kts 35°
2026-04-14 13:46 31.23662 -87.53994 17000 ft 400 kts 35°
2026-04-14 13:46 31.25922 -87.52109 17000 ft 400 kts 35°
2026-04-14 13:47 31.28183 -87.50218 17000 ft 400 kts 35°
2026-04-14 13:47 31.30444 -87.48320 17000 ft 400 kts 36°
2026-04-14 13:47 31.32701 -87.46420 17000 ft 400 kts 36°
2026-04-14 13:47 31.34960 -87.44516 17000 ft 400 kts 36°
2026-04-14 13:48 31.37218 -87.42612 17000 ft 400 kts 36°
2026-04-14 13:48 31.39475 -87.40709 17000 ft 400 kts 36°
2026-04-14 13:48 31.41733 -87.38805 17000 ft 400 kts 36°
2026-04-14 13:48 31.44085 -87.37076 16999 ft 400 kts 26°
2026-04-14 13:49 31.46706 -87.36003 16998 ft 400 kts 11°
2026-04-14 13:49 31.49471 -87.35742 17004 ft 399 kts
2026-04-14 13:49 31.52243 -87.35865 17001 ft 399 kts 355°
2026-04-14 13:49 31.55004 -87.36182 17000 ft 398 kts 353°
2026-04-14 13:50 31.57759 -87.36585 17000 ft 398 kts 352°
2026-04-14 13:50 31.60505 -87.37008 17000 ft 398 kts 352°
2026-04-14 13:50 31.63255 -87.37421 17000 ft 398 kts 352°
2026-04-14 13:50 31.66004 -87.37815 17000 ft 398 kts 353°
2026-04-14 13:51 31.68757 -87.38191 17000 ft 398 kts 353°
2026-04-14 13:51 31.71511 -87.38555 17000 ft 398 kts 353°
2026-04-14 13:51 31.73333 -87.38791 17000 ft 398 kts 353°
2026-04-14 13:51 31.76089 -87.39146 17000 ft 398 kts 353°
2026-04-14 13:52 31.78845 -87.39500 17000 ft 398 kts 353°
2026-04-14 13:52 31.81601 -87.39854 17000 ft 398 kts 353°
2026-04-14 13:52 31.84357 -87.40209 17000 ft 398 kts 353°
2026-04-14 13:52 31.87113 -87.40566 16999 ft 398 kts 353°
2026-04-14 13:53 31.89869 -87.40923 17000 ft 398 kts 353°
2026-04-14 13:53 31.92622 -87.41280 17000 ft 398 kts 353°
2026-04-14 13:53 31.95378 -87.41638 17000 ft 398 kts 353°
2026-04-14 13:53 31.98130 -87.41996 17000 ft 398 kts 353°
2026-04-14 13:54 32.00883 -87.42354 17000 ft 398 kts 353°
2026-04-14 13:54 32.03638 -87.42712 17000 ft 398 kts 353°
2026-04-14 13:54 32.06392 -87.43070 17000 ft 398 kts 353°
2026-04-14 13:54 32.09144 -87.43428 17000 ft 398 kts 353°
2026-04-14 13:55 32.11897 -87.43787 17000 ft 398 kts 353°
2026-04-14 13:55 32.14651 -87.44146 17000 ft 398 kts 353°
2026-04-14 13:55 32.17403 -87.44505 17000 ft 398 kts 353°
2026-04-14 13:55 32.20158 -87.44864 17000 ft 398 kts 353°
2026-04-14 13:56 32.22913 -87.45224 17000 ft 398 kts 353°
2026-04-14 13:56 32.25634 -87.45580 17000 ft 398 kts 353°
2026-04-14 13:56 32.28389 -87.45940 17000 ft 398 kts 353°
2026-04-14 13:56 32.31143 -87.46301 17000 ft 398 kts 353°
2026-04-14 13:57 32.33898 -87.46661 17000 ft 398 kts 353°
2026-04-14 13:57 32.36655 -87.47023 17000 ft 398 kts 353°
2026-04-14 13:57 32.39407 -87.47384 17000 ft 398 kts 353°
2026-04-14 13:57 32.42163 -87.47745 17000 ft 398 kts 353°
2026-04-14 13:58 32.44916 -87.48106 17000 ft 398 kts 353°
2026-04-14 13:58 32.47673 -87.48468 17000 ft 398 kts 353°
2026-04-14 13:58 32.50432 -87.48831 17000 ft 398 kts 353°
2026-04-14 13:58 32.53188 -87.49193 17000 ft 398 kts 353°
2026-04-14 13:59 32.55942 -87.49556 17000 ft 398 kts 353°
2026-04-14 13:59 32.58696 -87.49919 17000 ft 398 kts 353°
2026-04-14 13:59 32.61455 -87.50282 17000 ft 398 kts 353°
2026-04-14 13:59 32.64209 -87.50645 17000 ft 398 kts 353°
2026-04-14 14:00 32.66967 -87.51009 17000 ft 398 kts 353°
2026-04-14 14:00 32.69718 -87.51373 17000 ft 398 kts 353°
2026-04-14 14:00 32.72475 -87.51737 17000 ft 398 kts 353°
2026-04-14 14:00 32.75234 -87.52101 17000 ft 398 kts 353°
2026-04-14 14:01 32.77991 -87.52465 17000 ft 398 kts 353°
2026-04-14 14:01 32.80744 -87.52829 17000 ft 398 kts 353°
2026-04-14 14:01 32.83499 -87.53194 17000 ft 398 kts 353°
2026-04-14 14:01 32.86216 -87.53554 17000 ft 398 kts 353°
2026-04-14 14:02 32.88974 -87.53919 17000 ft 398 kts 353°
2026-04-14 14:02 32.91735 -87.54285 17000 ft 398 kts 353°
2026-04-14 14:02 32.94490 -87.54651 17000 ft 398 kts 353°
2026-04-14 14:02 32.97249 -87.55018 17000 ft 399 kts 353°
2026-04-14 14:03 33.00006 -87.55384 17000 ft 398 kts 353°
2026-04-14 14:03 33.02762 -87.55751 17001 ft 398 kts 353°
2026-04-14 14:03 33.05514 -87.56117 17000 ft 398 kts 353°
2026-04-14 14:03 33.08268 -87.56484 17000 ft 398 kts 353°
2026-04-14 14:04 33.11024 -87.56851 17000 ft 398 kts 353°
2026-04-14 14:04 33.13779 -87.57218 17000 ft 398 kts 353°
2026-04-14 14:04 33.16536 -87.57586 17000 ft 398 kts 353°
2026-04-14 14:04 33.19285 -87.57953 17000 ft 398 kts 353°
2026-04-14 14:05 33.22044 -87.58321 17000 ft 398 kts 353°
2026-04-14 14:05 33.24804 -87.58690 17000 ft 398 kts 353°
2026-04-14 14:05 33.27525 -87.59054 17000 ft 398 kts 353°
2026-04-14 14:05 33.30279 -87.59423 17001 ft 398 kts 353°
2026-04-14 14:06 33.33035 -87.59791 17000 ft 398 kts 353°
2026-04-14 14:06 33.35797 -87.60161 17000 ft 398 kts 353°
2026-04-14 14:06 33.38552 -87.60531 17000 ft 398 kts 353°
2026-04-14 14:06 33.41310 -87.60901 17000 ft 398 kts 353°
2026-04-14 14:07 33.44065 -87.61271 17000 ft 398 kts 353°
2026-04-14 14:07 33.46822 -87.61642 17000 ft 399 kts 353°
2026-04-14 14:07 33.49578 -87.62012 17000 ft 399 kts 353°
2026-04-14 14:07 33.52337 -87.62383 17000 ft 399 kts 353°
2026-04-14 14:08 33.55094 -87.62754 17000 ft 399 kts 353°
2026-04-14 14:08 33.57849 -87.63124 17000 ft 399 kts 353°
2026-04-14 14:08 33.60610 -87.63497 17000 ft 398 kts 353°
2026-04-14 14:08 33.63328 -87.63863 17001 ft 398 kts 353°
2026-04-14 14:09 33.66079 -87.64234 17000 ft 398 kts 353°
2026-04-14 14:09 33.68838 -87.64606 17000 ft 399 kts 353°
2026-04-14 14:09 33.71595 -87.64978 17000 ft 399 kts 353°
2026-04-14 14:09 33.74351 -87.65351 17000 ft 399 kts 353°
2026-04-14 14:10 33.77113 -87.65726 17000 ft 399 kts 353°
2026-04-14 14:10 33.79873 -87.66100 17000 ft 399 kts 353°
2026-04-14 14:10 33.82632 -87.66474 17000 ft 399 kts 353°
2026-04-14 14:10 33.85393 -87.66848 17000 ft 399 kts 353°
2026-04-14 14:11 33.88149 -87.67221 17001 ft 399 kts 353°
2026-04-14 14:11 33.90910 -87.67595 17000 ft 399 kts 353°
2026-04-14 14:11 33.93663 -87.67969 17000 ft 399 kts 353°
2026-04-14 14:11 33.96422 -87.68344 17000 ft 399 kts 353°
2026-04-14 14:12 33.99161 -87.68859 16997 ft 399 kts 346°
2026-04-14 14:12 34.01745 -87.70042 16998 ft 399 kts 332°
2026-04-14 14:12 34.03941 -87.72007 16999 ft 399 kts 315°
2026-04-14 14:12 34.05649 -87.74626 17004 ft 398 kts 304°
2026-04-14 14:13 34.07172 -87.77410 17000 ft 397 kts 303°
2026-04-14 14:13 34.08667 -87.80216 17000 ft 398 kts 302°
2026-04-14 14:13 34.10161 -87.83021 17000 ft 398 kts 302°
2026-04-14 14:13 34.11657 -87.85829 17000 ft 397 kts 302°
2026-04-14 14:14 34.13153 -87.88634 17001 ft 398 kts 302°
2026-04-14 14:14 34.14651 -87.91443 17000 ft 397 kts 302°
2026-04-14 14:14 34.16146 -87.94247 17000 ft 397 kts 302°
2026-04-14 14:14 34.17642 -87.97053 17000 ft 397 kts 302°
2026-04-14 14:15 34.19138 -87.99862 17000 ft 397 kts 302°
2026-04-14 14:15 34.20630 -88.02676 17000 ft 397 kts 302°
2026-04-14 14:15 34.22073 -88.05523 17000 ft 398 kts 301°
2026-04-14 14:15 34.23501 -88.08388 17000 ft 397 kts 301°
2026-04-14 14:16 34.24922 -88.11246 17000 ft 397 kts 301°
2026-04-14 14:16 34.26350 -88.14117 17000 ft 397 kts 301°
2026-04-14 14:16 34.27772 -88.16978 17000 ft 397 kts 301°
2026-04-14 14:17 34.30601 -88.22674 17000 ft 397 kts 301°
2026-04-14 14:17 34.32022 -88.25537 17000 ft 397 kts 301°
2026-04-14 14:17 34.33443 -88.28400 17000 ft 397 kts 301°
2026-04-14 14:17 34.34880 -88.31301 17000 ft 397 kts 301°
2026-04-14 14:18 34.36282 -88.34132 17000 ft 397 kts 301°
2026-04-14 14:18 34.37700 -88.36998 17000 ft 397 kts 301°
2026-04-14 14:18 34.39118 -88.39867 17000 ft 397 kts 301°
2026-04-14 14:18 34.40537 -88.42738 17000 ft 397 kts 301°
2026-04-14 14:19 34.41955 -88.45611 17000 ft 397 kts 301°
2026-04-14 14:19 34.43371 -88.48483 17000 ft 397 kts 301°
2026-04-14 14:19 34.44785 -88.51351 17000 ft 397 kts 301°
2026-04-14 14:19 34.46200 -88.54225 17000 ft 397 kts 301°
2026-04-14 14:20 34.47614 -88.57101 17000 ft 397 kts 301°
2026-04-14 14:20 34.49029 -88.59978 17000 ft 397 kts 301°
2026-04-14 14:20 34.50442 -88.62855 17000 ft 397 kts 301°
2026-04-14 14:20 34.51855 -88.65735 17000 ft 397 kts 300°
2026-04-14 14:21 34.53266 -88.68612 17000 ft 397 kts 300°
2026-04-14 14:21 34.54676 -88.71490 17000 ft 397 kts 300°
2026-04-14 14:21 34.56089 -88.74376 17000 ft 397 kts 300°
2026-04-14 14:21 34.57499 -88.77259 17000 ft 397 kts 300°
2026-04-14 14:22 34.58908 -88.80141 17000 ft 397 kts 300°
2026-04-14 14:22 34.60318 -88.83029 17000 ft 397 kts 300°
2026-04-14 14:22 34.61727 -88.85916 17000 ft 397 kts 300°
2026-04-14 14:22 34.63103 -88.88831 16998 ft 397 kts 297°
2026-04-14 14:23 34.64106 -88.91947 17003 ft 397 kts 287°
2026-04-14 14:23 34.64849 -88.95183 17001 ft 397 kts 285°
2026-04-14 14:23 34.65550 -88.98427 17007 ft 408 kts 284°
2026-04-14 14:23 34.66277 -89.01796 17004 ft 416 kts 284°
2026-04-14 14:24 34.67017 -89.05212 17001 ft 418 kts 284°
2026-04-14 14:24 34.67773 -89.08668 17000 ft 418 kts 285°
2026-04-14 14:24 34.68541 -89.12026 17000 ft 418 kts 285°
2026-04-14 14:24 34.69330 -89.15431 17000 ft 418 kts 285°
2026-04-14 14:25 34.70118 -89.18831 17000 ft 418 kts 285°
2026-04-14 14:25 34.70906 -89.22234 16999 ft 416 kts 285°
2026-04-14 14:25 34.71674 -89.25561 16992 ft 403 kts 285°
2026-04-14 14:25 34.72409 -89.28819 16998 ft 398 kts 285°
2026-04-14 14:26 34.73145 -89.32123 17006 ft 411 kts 285°
2026-04-14 14:26 34.73898 -89.35512 17002 ft 417 kts 285°
2026-04-14 14:26 34.74640 -89.38856 16807 ft 399 kts 285°
2026-04-14 14:26 34.75346 -89.42040 16471 ft 381 kts 285°
2026-04-14 14:27 34.76025 -89.45104 15908 ft 371 kts 285°
2026-04-14 14:27 34.76699 -89.48115 15231 ft 366 kts 286°
2026-04-14 14:27 34.77687 -89.50937 14590 ft 360 kts 298°
2026-04-14 14:27 34.78956 -89.53540 13963 ft 355 kts 301°
2026-04-14 14:28 34.80248 -89.56069 13370 ft 348 kts 302°
2026-04-14 14:28 34.81504 -89.58527 13116 ft 333 kts 301°
2026-04-14 14:28 34.82674 -89.60826 13013 ft 315 kts 301°
2026-04-14 14:28 34.83793 -89.63032 12918 ft 298 kts 301°
2026-04-14 14:29 34.84874 -89.65170 12432 ft 298 kts 301°
2026-04-14 14:29 34.85965 -89.67330 11917 ft 298 kts 301°
2026-04-14 14:29 34.87045 -89.69472 11570 ft 295 kts 301°
2026-04-14 14:29 34.88113 -89.71593 11232 ft 294 kts 301°
2026-04-14 14:30 34.89179 -89.73711 10877 ft 292 kts 301°
2026-04-14 14:30 34.90238 -89.75816 10526 ft 290 kts 301°
2026-04-14 14:30 34.91290 -89.77909 10174 ft 289 kts 301°
2026-04-14 14:30 34.92337 -89.79993 9826 ft 287 kts 301°
2026-04-14 14:31 34.93372 -89.82051 9554 ft 279 kts 301°
2026-04-14 14:31 34.94453 -89.83945 9180 ft 279 kts 311°
2026-04-14 14:31 34.96017 -89.85385 8859 ft 277 kts 334°
2026-04-14 14:31 34.97796 -89.85906 8620 ft 258 kts 354°
2026-04-14 14:32 34.99532 -89.85993 8317 ft 242 kts 359°
2026-04-14 14:32 35.01186 -89.86009 7974 ft 236 kts 359°
2026-04-14 14:32 35.02822 -89.86023 7617 ft 235 kts 359°
2026-04-14 14:32 35.04456 -89.86044 7335 ft 234 kts 359°
2026-04-14 14:33 35.06083 -89.86069 7053 ft 233 kts 359°
2026-04-14 14:33 35.07704 -89.86098 6768 ft 232 kts 359°
2026-04-14 14:33 35.09315 -89.86130 6491 ft 231 kts 358°
2026-04-14 14:33 35.10922 -89.86163 6211 ft 230 kts 358°
2026-04-14 14:34 35.14115 -89.86227 5656 ft 228 kts 358°
2026-04-14 14:34 35.15701 -89.86260 5387 ft 228 kts 358°
2026-04-14 14:34 35.17283 -89.86294 5111 ft 227 kts 358°
2026-04-14 14:35 35.18856 -89.86326 4839 ft 226 kts 358°
2026-04-14 14:35 35.20424 -89.86360 4569 ft 225 kts 358°
2026-04-14 14:35 35.21985 -89.86395 4298 ft 224 kts 358°
2026-04-14 14:35 35.23540 -89.86431 4029 ft 223 kts 358°
2026-04-14 14:36 35.25089 -89.86464 3764 ft 222 kts 358°
2026-04-14 14:36 35.26633 -89.86496 3497 ft 221 kts 358°
2026-04-14 14:36 35.28169 -89.86527 3217 ft 220 kts 358°
2026-04-14 14:36 35.29795 -89.86574 3107 ft 249 kts 358°
2026-04-14 14:37 35.31573 -89.86652 3106 ft 259 kts 357°
2026-04-14 14:37 35.33375 -89.86755 3015 ft 260 kts 354°
2026-04-14 14:37 35.35104 -89.87260 2897 ft 260 kts 338°
2026-04-14 14:37 35.36584 -89.88500 2776 ft 259 kts 313°
2026-04-14 14:38 35.37435 -89.90419 2685 ft 258 kts 284°
2026-04-14 14:38 35.37422 -89.92585 2492 ft 255 kts 256°
2026-04-14 14:38 35.36646 -89.94509 2358 ft 251 kts 241°
2026-04-14 14:38 35.36030 -89.96413 3367 ft 241 kts 251°
2026-04-14 14:39 35.35572 -89.98458 3558 ft 252 kts 261°
2026-04-14 14:39 35.35529 -89.99834 3449 ft 237 kts 274°
2026-04-14 14:39 35.36058 -90.01744 2734 ft 238 kts 303°
2026-04-14 14:39 35.37285 -90.03002 2205 ft 232 kts 335°
2026-04-14 14:40 35.38843 -90.03241 2012 ft 230 kts
2026-04-14 14:40 35.40353 -90.02359 2010 ft 252 kts 39°
2026-04-14 14:40 35.41592 -90.00799 2007 ft 258 kts 49°
2026-04-14 14:40 35.42429 -89.98866 2003 ft 260 kts 74°
2026-04-14 14:41 35.42418 -89.96670 2000 ft 260 kts 106°
2026-04-14 14:41 35.41428 -89.94845 1998 ft 260 kts 140°
2026-04-14 14:41 35.39785 -89.94003 2003 ft 259 kts 173°
2026-04-14 14:41 35.38001 -89.94176 2003 ft 257 kts 191°
2026-04-14 14:42 35.36257 -89.94662 2001 ft 257 kts 194°
2026-04-14 14:42 35.34515 -89.95172 2001 ft 257 kts 194°
2026-04-14 14:42 35.32776 -89.95671 2001 ft 257 kts 193°
2026-04-14 14:42 35.31033 -89.96164 2001 ft 257 kts 193°
2026-04-14 14:43 35.29291 -89.96651 1998 ft 255 kts 193°
2026-04-14 14:43 35.27664 -89.97098 1985 ft 225 kts 193°
2026-04-14 14:43 35.26217 -89.97466 1980 ft 201 kts 191°
2026-04-14 14:43 35.24907 -89.97718 1978 ft 182 kts 188°
2026-04-14 14:44 35.23664 -89.97876 1993 ft 178 kts 185°
2026-04-14 14:44 35.22446 -89.97955 1996 ft 175 kts 182°
2026-04-14 14:44 35.21295 -89.97964 1996 ft 155 kts 180°
2026-04-14 14:44 35.20299 -89.97943 1997 ft 131 kts 180°
2026-04-14 14:45 35.19425 -89.97923 1994 ft 124 kts 180°
2026-04-14 14:45 35.18563 -89.97905 1995 ft 124 kts 180°
2026-04-14 14:45 35.17700 -89.97883 1994 ft 124 kts 180°
2026-04-14 14:45 35.16839 -89.97863 1998 ft 124 kts 180°
2026-04-14 14:46 35.15978 -89.97844 2000 ft 124 kts 180°
2026-04-14 14:46 35.15116 -89.97822 2000 ft 124 kts 179°
2026-04-14 14:46 35.14255 -89.97801 1996 ft 124 kts 180°
2026-04-14 14:46 35.13388 -89.97784 1868 ft 124 kts 180°
2026-04-14 14:47 35.12525 -89.97767 1699 ft 124 kts 180°
2026-04-14 14:47 35.11666 -89.97749 1524 ft 123 kts 180°
2026-04-14 14:47 35.10810 -89.97731 1360 ft 123 kts 180°
2026-04-14 14:47 35.09957 -89.97712 1198 ft 123 kts 180°
2026-04-14 14:48 35.09104 -89.97694 1033 ft 122 kts 180°
2026-04-14 14:48 35.08252 -89.97676 871 ft 122 kts 180°
2026-04-14 14:48 35.07403 -89.97659 712 ft 122 kts 180°